Theta_e
300 304 313 313 311 307 306 302 300 298 296 296 294 292 293 293 294 295 295 295 295 292 289 285 282 282 282 283 283 283 283 284 282 279 279 278 278 277 276 275 274 273 273
303 306 308 307 306 303 298 296 295 294 294 294 293 292 292 294 295 296 292 292 292 284 282 282 281 282 282 282 282 281 281 281 280 279 278 278 277 276 275 274 273 272 271
302 299 299 298 298 294 294 294 294 294 294 293 293 294 294 293 292 291 291 288 283 282 281 281 281 281 281 280 281 280 280 279 279 278 277 276 275 274 273 273 272 271 271
295 293 292 293 292 291 292 292 292 293 292 293 292 292 293 291 290 288 284 281 281 281 281 281 280 281 280 280 280 279 278 278 277 276 275 275 274 273 272 272 271 270 270
292 291 290 290 291 291 291 290 291 291 291 292 291 290 289 289 284 282 281 281 281 280 279 279 279 279 279 279 280 278 277 276 276 275 275 274 273 272 272 271 270 270 269
290 289 289 289 289 289 289 288 289 287 287 287 286 286 282 281 281 282 282 281 280 279 279 279 279 279 279 279 279 278 277 275 275 274 273 273 272 271 271 270 270 269 269
288 288 288 287 286 285 285 284 283 283 285 284 282 281 281 281 281 281 281 280 279 279 279 278 277 278 278 278 277 276 275 275 274 273 272 272 272 271 270 270 269 268 267
285 285 285 284 283 283 283 282 282 282 282 281 281 281 281 281 280 280 280 280 279 279 278 278 278 277 277 276 276 275 275 274 272 273 272 272 271 271 270 268 267 266 264
283 283 283 283 282 282 282 281 281 281 281 281 281 281 281 281 280 280 280 279 278 277 278 277 277 277 277 277 276 275 274 273 272 272 271 271 270 268 268 267 265 263 264
282 282 282 282 282 282 281 281 281 281 281 281 281 281 281 280 280 279 279 278 278 277 277 277 277 276 276 276 275 274 272 272 272 271 270 268 267 267 266 265 264 263 262
282 282 282 282 282 282 282 282 281 280 280 280 281 280 280 280 280 279 279 279 278 277 277 276 275 276 275 275 273 271 272 272 271 269 267 267 267 266 266 265 264 263 262
283 283 283 283 282 283 281 280 280 280 280 280 280 280 280 280 280 279 278 278 278 277 275 274 274 274 273 271 270 271 271 269 268 267 266 266 265 265 264 264 263 262 262
285 283 284 283 281 280 280 280 280 280 279 279 279 279 280 280 279 278 277 276 276 275 274 273 272 270 270 270 270 269 268 268 267 266 265 265 264 264 263 262 262 262 262
279 279 279 279 279 280 280 280 280 279 279 279 278 278 278 278 277 276 275 274 273 273 272 271 270 270 270 270 269 268 267 267 266 265 264 264 263 263 262 262 260 260 259
280 280 280 280 280 279 279 279 280 280 280 280 279 279 278 277 276 275 274 273 273 272 271 270 270 270 270 270 269 268 268 267 266 265 264 263 263 262 262 261 260 259 258
281 280 280 280 279 279 279 278 278 279 279 279 279 279 277 277 276 276 275 274 273 271 271 271 270 270 269 268 268 268 268 266 265 264 264 263 262 262 261 261 259 258 258
281 280 280 279 279 278 278 278 278 278 278 278 277 277 277 276 276 275 273 272 271 271 270 270 270 269 269 268 267 266 266 266 265 265 264 264 263 262 261 260 259 258 257
281 281 281 280 280 279 279 279 278 277 277 277 277 277 277 276 274 273 273 272 271 270 270 270 270 269 268 267 266 266 266 266 265 265 264 264 263 262 261 260 258 257 256
281 281 280 280 280 279 279 279 279 278 277 277 276 275 275 274 273 272 271 270 270 270 270 269 269 268 267 266 266 266 266 265 265 264 264 264 263 261 260 260 259 258 256
282 282 281 281 280 279 279 279 278 278 277 277 276 276 274 273 272 271 270 269 270 270 269 269 268 267 267 266 266 266 265 265 265 265 264 263 263 261 260 259 258 256 256
283 281 281 281 281 280 279 279 279 278 278 277 277 275 274 272 271 270 269 269 269 269 269 268 268 267 267 266 266 266 266 266 265 264 263 263 262 261 260 259 258 257 256
282 283 282 281 281 279 279 278 278 278 277 277 276 275 274 272 271 270 270 270 269 269 268 268 267 267 267 266 266 266 265 265 265 264 263 262 261 260 260 259 258 257 257
283 283 283 282 282 279 278 277 277 277 277 276 275 275 273 273 271 270 269 269 269 269 268 267 267 267 267 267 266 266 265 265 265 264 263 262 261 260 259 258 258 257 257
284 282 281 280 281 279 277 277 277 276 276 275 275 274 273 272 271 270 269 269 268 268 268 268 267 267 267 267 267 266 266 266 266 266 264 263 262 261 261 259 259 258 258
281 281 280 281 280 278 277 276 276 276 276 275 274 273 273 271 270 269 269 268 268 268 268 268 268 267 267 267 267 266 267 267 267 266 265 264 263 263 262 261 261 259 259
281 280 279 278 277 277 276 276 276 275 275 274 274 273 272 270 269 269 268 267 267 267 267 267 268 267 267 267 267 267 268 267 267 265 264 264 264 264 264 263 263 262 261
Wind_Speed
18 17 24 30 30 30 32 31 30 30 32 32 32 33 37 40 38 41 38 36 35 30 25 24 24 21 21 18 15 13 10 7 8 4 5 3 2 6 12 16 18 17 19
12 20 32 33 32 30 29 30 31 32 33 36 36 35 37 41 40 42 39 37 37 33 29 28 26 21 19 16 14 14 12 10 6 7 3 0 4 10 15 17 16 16 19
22 26 32 33 32 32 33 34 34 37 35 37 39 42 39 39 36 38 40 37 35 32 29 27 24 20 19 15 14 13 11 10 10 6 3 3 6 11 14 13 14 15 17
24 21 28 33 34 36 36 38 41 41 44 43 40 42 41 39 40 39 37 36 34 30 27 24 21 18 17 14 13 11 9 9 8 6 3 3 6 10 11 13 18 16 20
27 26 26 35 39 41 41 37 42 42 43 45 44 41 42 40 36 38 37 36 34 30 25 22 19 17 15 12 11 10 8 8 7 5 4 5 6 10 12 15 18 21 22
27 27 27 37 38 38 41 40 43 41 43 42 41 41 35 34 34 34 34 34 31 30 27 22 19 17 15 14 13 12 10 7 6 4 2 5 7 10 12 16 19 21 11
29 28 29 33 34 40 39 41 39 41 44 42 35 36 34 28 31 31 30 30 28 26 23 20 16 13 12 13 11 8 6 7 6 5 4 6 8 10 15 18 18 17 18
33 31 30 34 34 40 43 41 41 43 37 35 35 34 30 24 26 27 27 26 25 22 18 16 15 12 10 8 6 4 5 5 8 6 7 8 10 14 15 16 18 23 25
33 32 32 35 36 40 41 40 39 41 37 35 33 30 26 24 24 25 25 24 23 20 17 15 14 14 8 3 2 2 3 7 7 5 6 10 14 15 14 15 18 14 10
33 34 36 38 39 40 39 36 37 37 33 33 29 29 27 25 20 20 21 22 22 19 16 15 11 10 7 3 1 2 5 7 9 11 13 15 16 16 15 14 13 11 9
37 40 39 39 40 41 39 35 35 34 34 33 32 27 25 22 18 17 16 17 18 17 14 11 9 7 5 4 2 4 6 10 11 15 17 18 17 16 15 14 14 13 11
40 40 39 38 37 39 35 30 31 34 34 31 31 28 23 19 17 15 14 14 14 13 12 9 8 6 4 2 3 3 5 11 14 16 17 19 18 18 17 17 16 15 15
38 35 35 34 32 32 33 32 31 30 28 25 23 25 23 21 18 15 15 14 12 12 10 8 7 3 0 3 5 7 11 13 15 16 18 19 18 18 18 19 17 16 17
29 26 25 27 27 27 27 27 28 26 24 24 23 24 22 19 15 12 13 13 13 12 9 6 2 1 4 6 8 10 12 13 14 17 20 20 19 18 18 17 18 17 18
26 24 23 22 21 20 18 17 18 17 19 24 23 22 21 16 12 9 10 10 9 8 5 3 1 4 7 10 12 13 15 15 16 18 19 21 20 18 18 17 19 18 14
24 22 22 23 22 22 22 19 12 12 12 13 15 14 13 12 13 10 9 8 8 4 2 1 4 7 10 13 16 19 19 18 18 19 21 22 21 20 20 20 18 17 16
20 20 19 19 20 21 20 20 19 12 11 12 11 8 8 13 10 9 8 7 5 3 2 5 8 10 13 16 18 20 23 22 21 21 23 24 24 23 22 22 20 17 17
14 14 14 14 15 16 16 16 17 19 18 15 9 9 9 9 8 8 8 7 4 5 8 9 11 13 16 20 21 23 24 25 24 24 24 25 25 24 23 22 21 20 19
12 12 11 11 11 12 13 13 13 15 17 17 15 12 12 9 8 7 9 8 10 10 10 12 14 17 20 22 23 24 25 26 26 26 27 26 26 24 25 24 23 24 23
10 10 9 9 11 12 13 14 14 14 16 16 15 12 14 14 15 14 13 12 12 11 13 16 17 19 22 23 24 25 27 28 29 29 29 28 27 25 25 25 24 21 20
9 8 9 9 11 13 13 15 15 16 18 19 18 15 14 15 17 17 16 14 14 15 15 17 20 22 23 24 25 27 29 31 31 31 30 28 26 27 26 25 26 25 24
9 9 10 11 12 15 16 16 17 17 18 19 18 18 17 19 19 18 16 15 14 16 17 20 22 24 24 25 25 27 29 31 32 31 30 29 27 27 27 26 26 26 25
12 12 13 15 16 16 18 19 19 20 21 21 20 20 21 23 22 20 18 16 17 18 19 21 23 25 25 25 25 26 29 31 31 30 29 29 29 29 27 26 26 25 23
14 15 15 17 19 19 20 21 22 22 22 22 22 22 22 21 20 20 19 19 19 20 21 23 24 26 27 27 27 28 29 29 28 29 29 29 30 29 29 30 30 30 29
17 17 19 20 20 21 21 21 21 21 21 22 22 22 21 21 21 21 20 19 21 22 23 23 25 26 27 28 29 29 28 26 27 27 27 29 30 32 33 33 34 32 32
19 20 19 18 20 20 20 20 21 21 22 22 22 21 21 21 21 21 20 20 21 23 24 25 26 27 27 28 29 27 27 29 30 28 30 31 32 34 35 35 35 35 35
Wind_Direction
268 265 170 170 171 171 173 173 172 168 166 160 154 143 148 151 150 147 147 150 145 142 138 130 123 124 118 118 122 118 112 117 118 122 132 160 280 305 316 327 332 333 332
262 168 159 159 161 163 157 154 157 147 151 149 144 140 138 142 147 144 146 147 140 131 134 132 126 125 119 115 109 99 92 86 107 109 134 79 313 324 326 328 331 329 329
165 149 143 149 150 147 145 146 146 144 140 141 142 139 138 138 145 143 143 133 130 137 137 133 128 130 118 113 103 95 87 84 86 103 91 333 324 332 331 325 327 329 323
130 127 125 130 133 135 137 140 139 140 139 135 137 137 144 145 142 135 128 135 134 134 132 128 128 123 117 112 106 92 93 89 84 82 63 0 332 324 327 331 329 326 323
110 111 115 119 124 126 126 125 126 127 132 139 143 139 137 135 129 135 138 135 134 130 126 123 119 114 109 110 105 101 89 80 69 54 27 341 316 334 341 329 319 323 317
96 99 109 111 114 116 118 120 124 124 125 127 124 122 115 128 139 139 140 137 136 131 124 120 115 111 103 96 97 90 74 70 63 42 341 318 337 334 324 320 318 320 320
84 92 99 104 106 106 107 105 105 105 114 112 107 117 120 127 138 139 138 134 130 126 128 127 122 117 110 115 104 84 63 64 42 349 341 338 321 321 318 312 307 306 299
82 84 92 97 98 99 100 99 99 100 104 109 116 118 118 127 130 136 132 128 124 124 126 123 113 110 102 96 84 57 42 16 360 350 326 314 320 314 306 302 301 302 303
79 82 88 94 96 96 96 99 101 105 109 112 116 116 123 121 126 128 131 126 124 120 114 110 109 105 96 103 62 44 10 346 338 312 288 296 301 303 306 301 300 308 309
82 85 89 92 93 94 98 103 107 113 113 117 115 121 120 114 116 129 133 131 124 121 119 111 102 98 96 114 65 10 339 326 317 305 301 304 307 307 303 294 293 288 303
91 93 93 97 99 104 108 115 122 120 119 118 119 119 119 119 117 124 130 133 133 132 131 129 121 108 105 98 10 12 350 308 300 299 305 308 308 305 305 303 300 297 286
101 102 104 109 112 119 122 123 123 124 121 120 121 118 117 114 113 114 126 135 138 136 133 134 137 131 116 90 333 332 293 292 302 303 301 302 304 308 311 308 306 298 288
109 109 114 121 126 132 133 131 128 129 126 125 120 118 120 122 118 115 113 116 133 138 138 135 139 145 296 338 320 305 302 302 298 296 299 302 309 312 314 313 317 314 307
108 111 118 123 129 133 135 137 138 138 133 130 131 134 137 138 135 125 122 124 132 140 140 147 151 358 335 322 314 307 304 303 301 298 299 305 313 317 322 324 316 318 309
116 118 119 120 120 118 119 130 134 142 150 154 157 154 152 150 150 149 149 153 149 152 151 141 355 326 320 311 304 305 307 306 297 299 300 309 315 320 321 321 316 314 303
124 128 132 134 135 135 133 128 137 146 154 159 155 161 156 155 150 148 139 130 137 120 123 340 319 303 297 304 311 313 310 308 303 306 310 315 316 318 318 317 313 308 303
139 143 144 144 146 144 143 139 123 111 117 129 133 133 135 141 150 151 148 150 174 211 253 277 280 289 300 303 304 301 301 308 308 310 312 317 318 317 317 314 312 308 301
150 152 155 159 160 159 160 154 150 147 143 141 138 149 154 163 169 171 181 197 222 244 258 274 288 297 298 298 301 301 304 307 310 312 312 315 315 312 309 306 306 302 300
165 162 165 167 172 177 178 177 175 172 170 169 176 186 178 184 192 198 214 228 239 255 276 287 296 298 300 301 301 302 304 305 308 310 312 313 312 308 303 303 303 303 299
182 183 183 188 192 191 192 193 192 192 193 201 209 213 213 218 217 230 238 247 261 274 283 290 298 301 302 301 303 306 306 307 311 313 313 311 309 305 300 301 300 294 287
204 206 212 214 216 216 216 216 216 216 218 221 229 233 238 240 245 247 250 257 268 278 286 293 297 299 303 305 306 308 308 309 312 312 310 309 306 300 301 299 299 296 287
220 231 231 238 238 234 235 235 233 235 238 241 245 244 245 248 251 252 255 264 274 282 288 291 295 301 304 306 309 307 305 306 311 312 309 307 304 301 301 299 298 293 290
226 229 235 239 243 242 240 241 243 246 247 248 253 251 248 248 253 260 267 274 278 282 288 292 297 302 307 308 308 306 306 310 313 310 306 305 302 302 301 295 293 286 279
239 243 246 250 251 245 243 242 244 247 250 254 256 256 257 259 261 265 268 273 279 286 291 296 299 303 308 309 310 312 314 314 313 310 307 302 300 301 299 296 293 287 282
238 240 243 250 250 250 253 254 254 256 258 260 262 262 263 262 262 264 270 275 281 286 292 297 301 307 309 312 315 317 315 314 311 310 307 304 302 301 297 293 292 286 281
239 246 249 250 252 254 256 259 261 262 261 262 262 261 260 259 262 267 274 279 285 291 296 301 305 308 311 314 317 317 317 317 316 312 304 297 294 294 294 292 291 287 283